Weather History for GMFM - January, 2014

Change the Weather History Date:

Friday, January 17, 2014

  Actual Average Record
Temperature  
Mean Temperature 50 °F -  
Max Temperature 55 °F - - ()
Min Temperature 45 °F - - ()
Degree Days  
Heating Degree Days 15    
Moisture  
Dew Point 44 °F    
Average Humidity 84    
Maximum Humidity 93    
Minimum Humidity 63    
Precipitation  
Precipitation 0.20 in - - ()
Sea Level Pressure  
Sea Level Pressure 29.79 in    
Wind  
Wind Speed 6 mph ()    
Max Wind Speed 13 mph    
Max Gust Speed -    
Visibility 3.5 miles    
Events Rain    
T = Trace of Precipitation, MM = Missing Value Source: Averaged Metar Reports

Daily Weather History Graph

Daily Weather History Graph

Search for Another Location

Airport or City:

Trip Planner

Search our weather history database for the weather conditions in past years. The results will help you decide how hot, cold, wet, or windy it might be!

Date:

Astronomy

Jan. 17, 2014 Rise Set
Actual Time 7:26 AM WET 5:38 PM WET
Civil Twilight 6:59 AM WET 6:05 PM WET
Nautical Twilight 6:29 AM WET 6:35 PM WET
Astronomical Twilight 5:59 AM WET 7:05 PM WET
Moon 7:05 PM WET (1/17) 7:52 AM WET (1/17)
Length of Visible Light 11h 05m
Length of Day
10h 11m
Full, 99% of the Moon is Illuminated
Jan 17
Full
Jan 24
Last Quarter
Jan 30
New
Feb 6
First Quarter
Feb 14
Full

Hourly Weather History & Observations

Time (WET) Temp. Windchill Dew Point Humidity Pressure Visibility Wind Dir Wind Speed Gust Speed Precip Events Conditions
12:00 AM 47 °F - 45 °F 90% 29.99 in 3 mi WNW 8.1 mph - - Rain Light Rain
12:00 AM 46.4 °F 42.4 °F 44.6 °F 93% 29.98 in 3.1 mi WNW 8.1 mph - N/A Rain Light Rain
1:00 AM 46.4 °F 42.4 °F 44.6 °F 93% 29.95 in 3.1 mi WSW 8.1 mph - N/A Rain Light Rain
2:00 AM 46.4 °F - 44.6 °F 93% 29.95 in 3.1 mi West 2.3 mph - N/A Rain Light Rain
3:00 AM 46 °F - 45 °F 93% 29.95 in 3 mi SW 1.2 mph - - Rain Light Rain
3:00 AM 46.4 °F - 44.6 °F 93% 29.95 in 3.1 mi SW 2.3 mph - N/A Rain Light Rain
4:00 AM 46.4 °F - 44.6 °F 93% 29.92 in 3.1 mi SW 2.3 mph - N/A Rain Light Rain
5:00 AM 46.4 °F - 44.6 °F 93% 29.89 in 3.1 mi SW 2.3 mph - N/A Rain Light Rain
6:00 AM 46 °F - 44 °F 91% 29.89 in 3 mi SW 2.3 mph - - Rain Light Rain
6:00 AM 46.4 °F - 44.6 °F 93% 29.86 in 3.1 mi WSW 2.3 mph - N/A Rain Light Rain
7:00 AM 46.4 °F 45.2 °F 44.6 °F 93% 29.86 in 3.1 mi West 3.5 mph - N/A Rain Light Rain
8:00 AM 46.4 °F - 44.6 °F 93% 29.86 in 3.1 mi SW 2.3 mph - N/A   Mostly Cloudy
9:00 AM 48 °F - 45 °F 85% 29.87 in 3 mi SW 6.9 mph - -   Overcast
9:00 AM 48.2 °F - 44.6 °F 87% 29.86 in 3.1 mi SW 6.9 mph - N/A Rain Rain
10:00 AM 50.0 °F - 44.6 °F 82% 29.86 in 3.1 mi SW 8.1 mph - N/A Rain Light Rain
11:00 AM 53.6 °F - 46.4 °F 77% 29.83 in 3.7 mi SW 8.1 mph - N/A   Mostly Cloudy
12:00 PM 53 °F - 44 °F 63% 29.78 in 5 mi WSW 11.5 mph - -   Partly Cloudy
12:00 PM 53.6 °F - 44.6 °F 72% 29.77 in 5.0 mi WSW 11.5 mph - N/A   Mostly Cloudy
1:00 PM 53.6 °F - 42.8 °F 67% 29.74 in 5.0 mi West 12.7 mph - N/A   Mostly Cloudy
2:00 PM 53.6 °F - 44.6 °F 72% 29.68 in 5.0 mi West 8.1 mph - N/A   Partly Cloudy
3:00 PM 53 °F - 46 °F 71% 29.67 in 4 mi West 10.4 mph - -   Mostly Cloudy
3:00 PM 53.6 °F - 46.4 °F 77% 29.68 in 3.7 mi West 10.4 mph - N/A   Partly Cloudy
4:00 PM 48.2 °F - 44.6 °F 87% 29.65 in 3.1 mi WSW 11.5 mph - N/A Rain Rain Showers
5:00 PM 50.0 °F - 44.6 °F 82% 29.65 in 3.7 mi WSW 8.1 mph - N/A   Mostly Cloudy
6:00 PM 49 °F - 43 °F 72% 29.66 in 4 mi SW 8.1 mph - -   Partly Cloudy
6:00 PM 50.0 °F - 42.8 °F 76% 29.65 in 3.7 mi SW 8.1 mph - N/A   Scattered Clouds
7:00 PM 48.2 °F - 42.8 °F 82% 29.65 in 3.7 mi West 10.4 mph - N/A   Scattered Clouds
8:00 PM 46.4 °F 41.5 °F 42.8 °F 87% 29.65 in 3.7 mi WSW 10.4 mph - N/A   Mostly Cloudy
9:00 PM 46 °F - 43 °F 85% 29.69 in 3 mi WSW 4.6 mph - - Rain Light Rain
9:00 PM 46.4 °F 44.3 °F 42.8 °F 87% 29.65 in 3.1 mi WSW 4.6 mph - N/A Rain Light Rain
10:00 PM 46.4 °F 44.3 °F 42.8 °F 87% 29.65 in 3.1 mi SSW 4.6 mph - N/A   Mostly Cloudy
11:00 PM 46.4 °F 44.3 °F 42.8 °F 87% 29.65 in 3.1 mi SSW 4.6 mph - N/A   Mostly Cloudy